sat.trackr.live / text

‹ back to catalog

STARLINK-31467

NORAD 59235 · 2024-049E

PAYLOAD ACTIVE UNKNOWN

§ Identity

Operator
Country
US
Launch date
2024-03-16
Launch site
AFETR
Launch vehicle
Mass (kg)
RCS (m²)

Purposes: comms

External: N2YO · Heavens-Above · Gunter

§ Orbital elements

Epoch: 2026-09-20T21:57:47.090304Z

Period
94.27 min
Inclination
43.0012°
Eccentricity
0.0001051
Mean motion
15.27574474 rev/d
Perigee alt
482.3 km
Apogee alt
483.8 km
Semi-major
6,861.2 km
B*
-8.8063e-6
RAAN
120.9776°
Arg perigee
265.0461°
Mean anomaly
95.0271°
Rev number
14,226

§ Raw data

STARLINK-314671 59235U 24049E   26263.91512836 -.00000504  00000+0 -88063-5 0  99972 59235  43.0012 120.9776 0001051 265.0461  95.0271 15.27574474142264

JSON: /api/v1/satellites/59235 · /tle

For live sub-satellite position, see the globe view (requires WebGL).

§ Visibility from observer

Set your observer location to see the next 7 days of passes ≥ 10°. The values pass through the URL so the page stays shareable.

No JS? Fill the form by hand. The geolocation button needs JavaScript.